Regional Weather Roundup
Issued by NWS

Home | Current Version | Previous Version | Graphics & Text | Print | Product List | Glossary Off
Versions: 1 2 3 4 5 6 7 8 9 10 11 12 13 14 15 16 17 18 19 20 21 22 23 24 25 26 27 28 29 30 31 32 33 34 35 36 37 38 39 40 41 42 43 44 45 46 47 48 49 50

000
ASUS43 KMKX 301631
RWRWI

WISCONSIN REGIONAL WEATHER ROUNDUP
NATIONAL WEATHER SERVICE MILWAUKEE/SULLIVAN WI
1200 PM CDT SAT MAY 30 2015

NOTE: "FAIR" INDICATES FEW OR NO CLOUDS BELOW 12,000 FEET WITH NO
SIGNIFICANT WEATHER AND/OR OBSTRUCTIONS TO VISIBILITY.

WIZ001-002-006>008-014>016-023>028-301800-
NORTHWEST WISCONSIN

CITY           SKY/WX    TMP DP  RH WIND       PRES   REMARKS
SUPERIOR ARPT  MOSUNNY   51  36  56 NE6       30.29R
ASHLAND        CLOUDY    49  39  68 NE15      30.29R
HAYWARD        CLOUDY    50  39  66 NE18      30.25R
SIREN          CLOUDY    52  40  63 NE9       30.25R
CUMBERLAND     CLOUDY    50  41  71 N13G18    30.23R
RICE LAKE      CLOUDY    51  42  71 N15G21    30.23R
CHETEK         CLOUDY    51  44  76 N13G18    30.22R
LADYSMITH      CLOUDY    51  44  77 N15       30.22R
EAU CLAIRE     CLOUDY    54  45  71 NE14G20   30.18R
MENOMONIE      CLOUDY    54  45  71 N16       30.20S
NEW RICHMOND   CLOUDY    52  42  69 NE12G17   30.23R
OSCEOLA        CLOUDY    52  43  70 N8        30.26R
$$

WIZ003>005-009-010-017-018-301800-
NORTH CENTRAL WISCONSIN

CITY           SKY/WX    TMP DP  RH WIND       PRES   REMARKS
MANITOWISH WTR CLOUDY    47  46  95 N9        30.21R FOG
ARBOR VITAE    CLOUDY    52  46  80 NE12G17   30.20R
WOODRUFF       CLOUDY    52  46  80 NE12G17   30.20R
RHINELANDER    CLOUDY    51  44  77 VRB7G18   30.18R
EAGLE RIVER    CLOUDY    47  41  77 N10       30.20R
LAND O LAKES   CLOUDY    46  43  91 N12       30.22R
PHILLIPS       CLOUDY    50  44  78 N14       30.20R
TOMAHAWK       CLOUDY    49  47  92 NE7       30.19R FOG
MEDFORD        CLOUDY    52  47  81 N12       30.16R
MERRILL        CLOUDY    55  47  75 NE9G20    30.17R
$$

WIZ029-030-035-036-043>047-301800-
CENTRAL WISCONSIN

CITY           SKY/WX    TMP DP  RH WIND       PRES   REMARKS
WAUSAU         CLOUDY    55  46  71 NE13      30.14R
MOSINEE        CLOUDY    54  48  82 NE15      30.16R
MARSHFIELD     CLOUDY    56  48  74 NE13      30.15R
STEVENS POINT  LGT RAIN  52  50  92 N9        30.15R
WAUPACA        LGT RAIN  54  48  82 NE10G18   30.15R
WAUTOMA        LGT RAIN  54  52  94 NE12      30.14R
WISC RAPIDS    LGT RAIN  55  51  86 NE7       30.15R
CAMP DOUGLAS   DRIZZLE   55  55 100 NE6       30.13R
$$

WIZ011>013-019>022-031-037>040-048>050-301800-
NORTHEAST WISCONSIN

CITY           SKY/WX    TMP DP  RH WIND       PRES   REMARKS
ANTIGO         CLOUDY    51  45  79 N14       30.16R
SHAWANO        CLOUDY    55  47  72 NE10G17   30.15R
OCONTO         CLOUDY    51  48  90 N9        30.15R
STURGEON BAY   CLOUDY    48  41  76 N17G26    30.17R
GREEN BAY      LGT RAIN  52  49  89 N14       30.15R
MANITOWOC      LGT RAIN  49  47  93 N9        30.13R
APPLETON       LGT RAIN  50  48  93 NE15G21   30.14R FOG
CLINTONVILLE   DRIZZLE   52  48  87 E9        30.16R
OSHKOSH        LGT RAIN  51  48  89 NE15G26   30.11R FOG
$$

WIZ032>034-041-042-053>061-301800-
SOUTHWEST WISCONSIN

CITY           SKY/WX    TMP DP  RH WIND       PRES   REMARKS
LA CROSSE      CLOUDY    57  50  77 N13       30.14R
SPARTA         CLOUDY    55  53  93 N7        30.14R
VIROQUA        CLOUDY    54  54 100 NE16      30.12R
BOSCOBEL       CLOUDY    59  54  83 NE16G22   30.08R
PRAIRIE DU CHI CLOUDY    59  55  87 N5        30.08R
PLATTEVILLE    CLOUDY    58  56  91 N22G28    30.04R
$$

WIZ056-057-062-063-064-067-068-301800-
SOUTH CENTRAL WISCONSIN

CITY           SKY/WX    TMP DP  RH WIND       PRES   REMARKS
REEDSBURG      RAIN      52  51  95 NE13      30.10R
BARABOO/DELLS  LGT RAIN  52  50  93 NE14G21   30.11R
LONE ROCK      LGT RAIN  55  52  89 NE13G23   30.10R FOG
MINERAL POINT  CLOUDY    57  54  88 NE13G18   30.06R
MADISON        CLOUDY    54  51  90 NE16G25   30.08R
MIDDLETON      CLOUDY    56  54  91 NE16G26   30.08R
WATERTOWN      CLOUDY   N/A N/A N/A NE9       30.08R
MONROE         CLOUDY    54  52  94 N17G28    30.03R
JANESVILLE     LGT RAIN  57  55  94 NE21      30.02R
$$

WIZ051-052-058>065-066-070>072-301800-
SOUTHEAST WISCONSIN

CITY           SKY/WX    TMP DP  RH WIND       PRES   REMARKS
MILWAUKEE      DRIZZLE   49  46  90 N22G29    30.07R FOG
WAUKESHA       RAIN      48  48 100 NE10G28   30.08R
MILWAUKEE/TIMM CLOUDY    50  46  87 NE20G30   30.09R FOG
RACINE         CLOUDY    48  45  89 N18G31    30.07R
BURLINGTON     LGT RAIN  50  49  96 NE12G20   30.06R
KENOSHA        CLOUDY    50  48  93 N15G23    30.06R FOG
FOND DU LAC    LGT RAIN  51  48  89 NE23G30   30.13R FOG
SHEBOYGAN      LGT RAIN  49  46  90 N20G26    30.11R FOG
WEST BEND      RAIN      48  45  87 NE13G20   30.10R
JUNEAU         LGT RAIN  50  49  95 NE13G21   30.10R
$$

LSZ147-162-301800-
LAKE SUPERIOR

STATION/POSITION TIME  TEMP    WIND        PRES    WAVE
                       AIR SEA DIR/SP/G            HT/PER
                 (UTC) (F)     (DEG/KT/KT) (MB)    (FT/S)
W MID LAKE BUOY  1550   39 37   40/  8/ 10   N/A     2/ 4
DEVILS ISLAND    1600   42      40/  6/  7   N/A
PORT WING        1540   45      30/ 11/ 13   N/A
SAXON HARBOR     1500   45      40/  9/ 12   N/A
$$

LMZ867-665-643>646-301800-
LAKE MICHIGAN

STATION/POSITION TIME  TEMP    WIND        PRES    WAVE
                       AIR SEA DIR/SP/G            HT/PER
                 (UTC) (F)     (DEG/KT/KT) (MB)    (FT/S)
CHAMBERS ISLAND  1400   50     350/ 16/ 19   N/A
N MID LAKE BUOY  1550   41 37  330/  6/  8   N/A     2/ 4
NORTHPORT PIER   1500   49     350/ 18/ 22   N/A
SISTER BAY       1518   51     360/ 17/ 21   N/A
ALGOMA LAKESHORE 1538           50/  8/ 13   N/A
KEWAUNEE LAKESHO 1600   47      30/  7/ 12   N/A
SHEBOYGAN LAKESH 1600   45      10/ 22/ 25   N/A
PORT WASHINGTON  1540   49      20/ 12/ 25   N/A
ATWATER BUOY     1600   48      20/ 23/ 27   N/A
MILWAUKEE LAKESH 1600   48      10/ 23/ 31   N/A
S MID LAKE BUOY  1550   41 38  360/  6/  8   N/A     1
KENOSHA   LAKESH 1600   47      10/ 23/ 28   N/A
$$

TC  - TEMPERATURE IN CELSIUS
VSB - VISIBILITY IN STATUTE MILES
WCI - WIND CHILL INDEX
HX  - HEAT INDEX



USA.gov is the U.S. government's official web portal to all federal, state and local government web resources and services.